Regional Weather Roundup
Issued by NWS State College, PA

Home | Current Version | Previous Version | Graphics & Text | Print | Product List | Glossary On
Versions: 1 2 3 4 5 6 7 8 9 10 11 12 13 14 15 16 17 18 19 20 21 22 23 24 25 26 27 28 29 30 31 32 33 34 35 36 37 38 39 40 41 42 43 44 45 46 47 48 49 50
000
ASUS41 KCTP 252203
RWRCTP

REGIONAL WEATHER ROUNDUP
NATIONAL WEATHER SERVICE STATE COLLEGE PA
600 PM EDT WED MAY 25 2016

Note: "fair" indicates few or no clouds below 12,000 feet with no
significant weather and/or obstructions to visibility.

* = STATION THAT DOES NOT REPORT PRECIPITATION /E.G. RAIN...SNOW...ETC/
    THUNDER OR FOG.

PAZ002>004-007>009-013>016-020>023-029>032-252300-
WESTERN PENNSYLVANIA

CITY           SKY/WX    TMP DP  RH WIND       PRES   REMARKS
ERIE           SUNNY     81  53  37 VRB5      30.08S
MEADVILLE      SUNNY     79  48  33 SW7       30.10F
FRANKLIN*      SUNNY     81  46  30 S8        30.14S
NEW CASTLE     FAIR      82  50  32 SW6       30.11F
BEAVER COUNTY  SUNNY     79  50  36 SW6       30.13S
BUTLER*        SUNNY     81  52  36 SW8       30.15S
PITTSBURGH INT PTSUNNY   82  47  29 SW8       30.12S
PITTSBURGH     SUNNY     81  48  31 SW8       30.12F
INDIANA*       SUNNY     81  48  32 W8G16     30.17R
LATROBE        SUNNY     81  48  32 SW6       30.13F
WASHINGTON CO* SUNNY     81  52  36 SW7       30.14S
$$

PAZ004>006-010>012-017>019-024>028-033>037-041-042-045-046-049>053-252300-
CENTRAL PENNSYLVANIA

CITY           SKY/WX    TMP DP  RH WIND       PRES   REMARKS
BRADFORD       SUNNY     81  42  25 W8        30.13S
DUBOIS         SUNNY     78  49  35 SW8       30.13F
CLEARFIELD     SUNNY     79  47  32 W7        30.13S
JOHNSTOWN      SUNNY     78  44  29 W9        30.17S
ALTOONA        SUNNY     82  48  30 N8        30.13F
STATE COLLEGE  SUNNY     81  48  32 W8        30.10F
WILLIAMSPORT   SUNNY     88  45  22 SW8       30.03S
SELINSGROVE    SUNNY     86  49  27 VRB7      30.06S
FT INDIANTOWN  NOT AVBL
CAPITAL CITY   MOSUNNY   84  50  30 SW8       30.08S
HARRISBURG     PTSUNNY   80  55  42 SW9       30.07F
YORK           MOSUNNY   81  53  37 SW3       30.10F
$$

PAZ038>040-043-044-047-048-054-055-060>062-067>071-252300-
EASTERN PENNSYLVANIA

CITY           SKY/WX    TMP DP  RH WIND       PRES   REMARKS
SCRANTON       MOSUNNY   84  47  27 SW9G18    30.05S
MOUNT POCONO   SUNNY     74  43  32 W10       30.11S
ALLENTOWN      SUNNY     85  49  28 W14G23    30.05S
QUAKERTOWN*    CLEAR     84  48  28 W6        30.08S
READING        SUNNY     85  46  25 W8        30.06F
LANCASTER      SUNNY     82  48  30 SW13      30.08F
COATESVILLE    CLEAR     82  46  28 VRB7      30.11F
POTTSTOWN      SUNNY     84  47  27 W8G17     30.08F
BLUE BELL      SUNNY     82  50  32 W8        30.07S
DOYLESTOWN     SUNNY     84  40  21 W8        30.06F
WILLOW GROVE   NOT AVBL
NORTH PHILA    SUNNY     85  48  27 W13       30.07F
PHILADELPHIA   PTSUNNY   87  46  24 SW13      30.07F
$$




USA.gov is the U.S. government's official web portal to all federal, state and local government web resources and services.